ONEWEB-0675 (55834 NORAD) Tracking and Keplerian Element Data

This shows tracking and keplerian element data for the satellite.

Feedback or suggestion? Click here.




ElementValue
Catalog55834
NameONEWEB-0675
Epoch Orbit931
Epoch Day127.25001157
Epoch Year2023
RAAN175.2702
Inclination86.9685
Eccentricity0.0011773
Argument of Perigee26.2197
Mean Anonmoly261.3279
Mean Motion14.28510534
Decay Rate-0.01105338
L11 55834U 23029AQ 23127.25001157 -.01105338 00000+0 -46879+0 0 9992
L22 55834 86.9685 175.2702 0011773 26.2197 261.3279 14.28510534 9315



Live tracking and technical data element details for ONEWEB-0675 (NORAD 55834). ONEWEB-0675 can be tracked NOW for your location showing map with azimuth and elevation plus other details from your city location.







IsCatalogInMostPopularTable: catalog: 55834, numindb: 7
Update: records affected: 1



GetName: 55834 ONEWEB-0675

Hit Count: updated at: Tue, 06 Jun 2023 02:30:01 GMT